Weather History for Keene, NH

Change the Weather History Date:

Sunday, January 20, 2013

  Actual Average Record
Temperature  
Mean Temperature 35 °F -  
Max Temperature 44 °F 31 °F 57 °F (1951)
Min Temperature 24 °F 6 °F -26 °F (1971)
Degree Days  
Heating Degree Days 30    
Moisture  
Dew Point 18 °F    
Average Humidity 58    
Maximum Humidity 86    
Minimum Humidity 26    
Precipitation  
Precipitation 0.00 in - - ()
Sea Level Pressure  
Sea Level Pressure 29.72 in    
Wind  
Wind Speed 6 mph (West)    
Max Wind Speed 20 mph    
Max Gust Speed 29 mph    
Visibility 10 miles    
Events      
Averages and records for this station are not official NWS values.
T = Trace of Precipitation, MM = Missing Value Source: NWS Daily Summary

Daily Weather History Graph

Daily Weather History Graph

Search for Another Location

Airport:

Trip Planner

Search our weather history database for the weather conditions in past years. The results will help you decide how hot, cold, wet, or windy it might be!

Date:

Astronomy

Jan. 20, 2013 Rise Set
Actual Time 7:14 AM EST 4:46 PM EST
Civil Twilight 6:43 AM EST 5:17 PM EST
Nautical Twilight 6:08 AM EST 5:52 PM EST
Astronomical Twilight 5:34 AM EST 6:26 PM EST
Moon 11:46 AM EST (1/20) 1:42 AM EST (1/20)
Length of Visible Light 10h 34m
Length of Day
9h 32m
Waxing Gibbous, 66% of the Moon is Illuminated
Jan 20
Waxing Gibbous
Jan 26
Full
Feb 3
Last Quarter
Feb 10
New
Feb 17
First Quarter

Hourly Weather History & Observations

Time (EST) Temp. Windchill Dew Point Humidity Pressure Visibility Wind Dir Wind Speed Gust Speed Precip Events Conditions
12:15 AM 28.4 °F - 23.0 °F 80% 29.81 in 10.0 mi Calm Calm - N/A   Mostly Cloudy
12:35 AM 30.2 °F - 24.8 °F 80% 29.81 in 10.0 mi Calm Calm - N/A   Overcast
12:55 AM 30.2 °F 24.3 °F 24.8 °F 80% 29.81 in 10.0 mi NE 5.8 mph - N/A   Overcast
1:35 AM 30.2 °F - 24.8 °F 80% 29.78 in 10.0 mi Calm Calm - N/A   Mostly Cloudy
1:55 AM 30.2 °F - 24.8 °F 80% 29.78 in 10.0 mi Calm Calm - N/A   Overcast
2:15 AM 32.0 °F - 24.8 °F 75% 29.78 in 10.0 mi Calm Calm - N/A   Overcast
2:35 AM 30.2 °F - 24.8 °F 80% 29.76 in 10.0 mi Calm Calm - N/A   Scattered Clouds
2:55 AM 30.2 °F - 24.8 °F 80% 29.74 in 10.0 mi Calm Calm - N/A   Partly Cloudy
3:15 AM 28.4 °F - 23.0 °F 80% 29.74 in 10.0 mi Calm Calm - N/A   Clear
3:35 AM 28.4 °F 24.6 °F 23.0 °F 80% 29.73 in 10.0 mi South 3.5 mph - N/A   Partly Cloudy
4:15 AM 26.6 °F - 23.0 °F 86% 29.71 in 10.0 mi Calm Calm - N/A   Clear
4:35 AM 26.6 °F - 23.0 °F 86% 29.69 in 10.0 mi Calm Calm - N/A   Clear
4:55 AM 26.6 °F - 23.0 °F 86% 29.68 in 8.0 mi Calm Calm - N/A   Clear
5:15 AM 26.6 °F - 21.2 °F 80% 29.66 in 9.0 mi Calm Calm - N/A   Clear
5:35 AM 26.6 °F 22.6 °F 23.0 °F 86% 29.64 in 10.0 mi South 3.5 mph - N/A   Clear
5:55 AM 28.4 °F 24.6 °F 23.0 °F 80% 29.62 in 10.0 mi SSE 3.5 mph - N/A   Clear
6:15 AM 26.6 °F - 19.4 °F 74% 29.63 in 10.0 mi Calm Calm - N/A   Clear
6:55 AM 26.6 °F - 23.0 °F 86% 29.59 in 10.0 mi Calm Calm - N/A   Clear
7:15 AM 30.2 °F - 24.8 °F 80% 29.59 in 10.0 mi Calm Calm - N/A   Clear
7:35 AM 28.4 °F - 23.0 °F 80% 29.59 in 10.0 mi Calm Calm - N/A   Clear
7:55 AM 32.0 °F 28.7 °F 24.8 °F 75% 29.59 in 10.0 mi SSE 3.5 mph - N/A   Clear
8:15 AM 28.4 °F - 21.2 °F 74% 29.60 in 10.0 mi Calm Calm - N/A   Clear
8:35 AM 30.2 °F 26.7 °F 26.6 °F 86% 29.60 in 10.0 mi NNE 3.5 mph - N/A   Clear
8:55 AM 39.2 °F 31.2 °F 28.4 °F 65% 29.58 in 10.0 mi South 13.8 mph 20.7 mph N/A   Clear
9:15 AM 41.0 °F 34.3 °F 26.6 °F 57% 29.57 in 10.0 mi South 11.5 mph 20.7 mph N/A   Clear
9:55 AM 42.8 °F 35.4 °F 26.6 °F 53% 29.55 in 10.0 mi SSW 15.0 mph 26.5 mph N/A   Clear
10:15 AM 44.6 °F 36.6 °F 26.6 °F 49% 29.55 in 10.0 mi SSW 19.6 mph 24.2 mph N/A   Clear
10:35 AM 44.6 °F 38.4 °F 26.6 °F 49% 29.55 in 10.0 mi SSW 12.7 mph 26.5 mph N/A   Partly Cloudy
10:55 AM 44.6 °F 38.1 °F 26.6 °F 49% 29.55 in 10.0 mi SW 13.8 mph 25.3 mph N/A   Mostly Cloudy
11:15 AM 44.6 °F 37.4 °F 26.6 °F 49% 29.55 in 10.0 mi SW 16.1 mph 23.0 mph N/A   Overcast
11:35 AM 44.6 °F 37.8 °F 26.6 °F 49% 29.56 in 10.0 mi WSW 15.0 mph 20.7 mph N/A   Overcast
11:55 AM 42.8 °F 36.2 °F 28.4 °F 57% 29.58 in 10.0 mi West 12.7 mph 23.0 mph N/A   Overcast
12:15 PM 42.8 °F 37.0 °F 28.4 °F 57% 29.60 in 10.0 mi West 10.4 mph 19.6 mph N/A   Overcast
12:36 PM 41.0 °F 32.5 °F 24.8 °F 53% 29.60 in 10.0 mi West 17.3 mph 27.6 mph N/A   Mostly Cloudy
1:35 PM 41.0 °F 35.2 °F 21.2 °F 45% 29.61 in 10.0 mi WSW 9.2 mph 16.1 mph N/A   Clear
1:55 PM 42.8 °F 34.8 °F 17.6 °F 36% 29.61 in 10.0 mi WNW 17.3 mph 28.8 mph N/A   Partly Cloudy
2:15 PM 42.8 °F 35.8 °F 12.2 °F 29% 29.62 in 10.0 mi WNW 13.8 mph 26.5 mph N/A   Clear
2:35 PM 42.8 °F 34.3 °F 10.4 °F 27% 29.64 in 10.0 mi WNW 19.6 mph 26.5 mph N/A   Clear
2:55 PM 41.0 °F 33.9 °F 8.6 °F 26% 29.66 in 10.0 mi WNW 12.7 mph 25.3 mph N/A   Clear
3:15 PM 39.2 °F 33.0 °F 10.4 °F 31% 29.67 in 10.0 mi NW 9.2 mph 23.0 mph N/A   Clear
3:35 PM 39.2 °F 29.8 °F 12.2 °F 33% 29.69 in 10.0 mi WSW 18.4 mph 26.5 mph N/A   Clear
3:56 PM 37.4 °F 28.2 °F 12.2 °F 36% 29.73 in 10.0 mi West 16.1 mph 24.2 mph N/A   Clear
4:35 PM 35.6 °F 29.2 °F 12.2 °F 38% 29.77 in 10.0 mi West 8.1 mph 20.7 mph N/A   Partly Cloudy
4:55 PM 33.8 °F 24.8 °F 10.4 °F 38% 29.78 in 10.0 mi WNW 12.7 mph 24.2 mph N/A   Mostly Cloudy
5:15 PM 33.8 °F 24.3 °F 10.4 °F 38% 29.80 in 10.0 mi West 13.8 mph 21.9 mph N/A   Scattered Clouds
5:35 PM 32.0 °F 23.6 °F 10.4 °F 41% 29.80 in 10.0 mi West 10.4 mph 20.7 mph N/A   Mostly Cloudy
5:55 PM 30.2 °F 20.2 °F 10.4 °F 44% 29.81 in 10.0 mi West 12.7 mph 27.6 mph N/A   Overcast
6:15 PM 30.2 °F 19.8 °F 8.6 °F 40% 29.83 in 10.0 mi West 13.8 mph 20.7 mph N/A   Scattered Clouds
6:35 PM 30.2 °F 20.8 °F 6.8 °F 37% 29.83 in 10.0 mi West 11.5 mph 25.3 mph N/A   Partly Cloudy
6:55 PM 28.4 °F 19.7 °F 6.8 °F 40% 29.83 in 10.0 mi WNW 9.2 mph 25.3 mph N/A   Partly Cloudy
7:35 PM 28.4 °F 18.5 °F 8.6 °F 43% 29.85 in 10.0 mi West 11.5 mph 25.3 mph N/A   Scattered Clouds
7:55 PM 28.4 °F 19.1 °F 8.6 °F 43% 29.86 in 10.0 mi WNW 10.4 mph 18.4 mph N/A   Overcast
8:15 PM 28.4 °F 19.1 °F 6.8 °F 40% 29.86 in 10.0 mi West 10.4 mph 24.2 mph N/A   Overcast
8:35 PM 28.4 °F 19.1 °F 8.6 °F 43% 29.87 in 10.0 mi WNW 10.4 mph 24.2 mph N/A   Overcast
8:55 PM 28.4 °F 19.7 °F 8.6 °F 43% 29.88 in 10.0 mi West 9.2 mph 23.0 mph N/A   Overcast
9:15 PM 28.4 °F 18.5 °F 10.4 °F 47% 29.89 in 10.0 mi West 11.5 mph 16.1 mph N/A   Overcast
9:35 PM 26.6 °F 16.8 °F 10.4 °F 51% 29.89 in 10.0 mi WSW 10.4 mph 18.4 mph N/A   Overcast
9:55 PM 26.6 °F 18.2 °F 10.4 °F 51% 29.90 in 10.0 mi West 8.1 mph - N/A   Overcast
10:35 PM 26.6 °F 16.8 °F 8.6 °F 47% 29.92 in 10.0 mi West 10.4 mph 21.9 mph N/A   Overcast
10:55 PM 26.6 °F 16.2 °F 8.6 °F 47% 29.93 in 10.0 mi West 11.5 mph 18.4 mph N/A   Overcast
11:15 PM 26.6 °F 17.5 °F 8.6 °F 47% 29.93 in 10.0 mi WNW 9.2 mph - N/A   Overcast
11:55 PM 24.8 °F 14.6 °F 6.8 °F 46% 29.95 in 10.0 mi WNW 10.4 mph 16.1 mph N/A   Overcast